Portada
METAR-TAF:

METAR-TAF

Aeropuertos :

Aeropuerto Santiago Pérez Quiroz

Arauca, Colombia

latitud: 07-04N, longitud: 070-44W, altitud: 128 m

Observación

El informe se hizo hace 3 horas y 17 minutos, a las 01:00 UTC
Viento 14 kt del sur
Temperatura 27°C
Humedad 58%
Presión 1014 hPa
Visibilidad 10 km o más
Nubes dispersas a una altura de 1800 ft
Nubes dispersas a una altura de 8000 ft

METAR: SKUC 190100Z 18014KT 9999 SCT018 SCT080 27/18 A2995

Hora: 23:17 (04:17 UTC)


TAF: falta

Observaciones y pronósticos meteorológicos de más de 4000 aeropuertos (mensajes METAR y TAF).

Los puntos amarillos y rojos representan las estaciones disponibles.

Ponga el ratón en el punto deseado para ver el nombre de la estación.

Haga clic para ver las observaciones y los pronósticos meteorológicos.

Para cambiar el mapa : haga clic en los botones verdes con una cruz de color negro para hacer un zoom, en el botón verde con un guión para alejar o en las flechas verdes para mapas adyacentes.


METAR-TAF: